HISPASAT 1E

Last updated on March 9, 2019, 3:10 a.m. UTC

1 37264U 10070A   19067.43943439 -.00000223  00000-0  00000+0 0  9999
2 37264   0.0336 122.5328 0002684 262.5868 268.9244  1.00271189 30014
UTC
Height (km)
Latitude
Longitude
Inclination
Orbital Period
UTC large
Height (km)
Speed (km/s)
/
Latitude / Longitude
Inclination (degrees)
Orbital Period (minutes)
Azimuth
Elevation
Range (km)
Doppler Factor
iOS Compass Heading
iOS Angle

Next 30 passes for location: Hong Kong

Rise time Rise Azimuth (degrees) Set time Set Azimuth (degrees) Duration Max altitude (degrees)

No matching passes for this satellites